TimeCST,TemperatureF,Dew PointF,Humidity,Sea Level PressureIn,VisibilityMPH,Wind Direction,Wind SpeedMPH,Gust SpeedMPH,PrecipitationIn,Events,Conditions,WindDirDegrees,DateUTC
12:54 AM,46.0,39.0,76,30.18,10.0,SSW,4.6,-,N/A,,Clear,200,2012-12-01 06:54:00
1:54 AM,48.0,39.9,74,30.21,10.0,Calm,Calm,-,N/A,,Clear,0,2012-12-01 07:54:00
2:54 AM,46.9,39.9,77,30.21,10.0,South,6.9,-,N/A,,Scattered Clouds,190,2012-12-01 08:54:00
3:54 AM,51.8,41.0,67,30.21,10.0,SSE,3.5,-,N/A,,Overcast,150,2012-12-01 09:54:00
4:54 AM,46.4,39.2,76,30.22,10.0,Calm,Calm,-,N/A,,Mostly Cloudy,0,2012-12-01 10:54:00
5:54 AM,44.6,39.2,81,30.23,10.0,Calm,Calm,-,N/A,,Mostly Cloudy,0,2012-12-01 11:54:00
6:54 AM,46.9,39.9,77,30.24,10.0,Calm,Calm,-,N/A,,Overcast,0,2012-12-01 12:54:00
7:54 AM,48.0,39.9,74,30.23,9.0,Calm,Calm,-,N/A,,Mostly Cloudy,0,2012-12-01 13:54:00
8:54 AM,51.8,42.8,71,30.23,10.0,South,4.6,-,N/A,,Overcast,180,2012-12-01 14:54:00
9:54 AM,55.9,43.0,62,30.23,10.0,South,5.8,-,N/A,,Overcast,170,2012-12-01 15:54:00
10:54 AM,57.0,44.1,62,30.22,10.0,South,4.6,-,N/A,,Overcast,170,2012-12-01 16:54:00
11:54 AM,59.0,45.0,60,30.19,10.0,South,6.9,-,N/A,,Overcast,170,2012-12-01 17:54:00
12:54 PM,61.0,46.0,58,30.17,10.0,South,10.4,-,N/A,,Overcast,190,2012-12-01 18:54:00
1:54 PM,63.0,46.9,56,30.14,10.0,South,5.8,-,N/A,,Overcast,170,2012-12-01 19:54:00
2:54 PM,64.9,46.9,52,30.12,10.0,SSE,10.4,-,N/A,,Clear,150,2012-12-01 20:54:00
3:54 PM,63.0,46.9,56,30.12,10.0,SE,8.1,-,N/A,,Clear,140,2012-12-01 21:54:00
4:54 PM,62.1,46.0,56,30.12,10.0,SSE,5.8,-,N/A,,Mostly Cloudy,160,2012-12-01 22:54:00
5:54 PM,61.0,46.0,58,30.12,10.0,SSE,6.9,-,N/A,,Scattered Clouds,150,2012-12-01 23:54:00
6:54 PM,60.1,44.1,55,30.11,10.0,SE,6.9,-,N/A,,Clear,140,2012-12-02 00:54:00
7:54 PM,61.0,43.0,52,30.10,10.0,SSE,9.2,-,N/A,,Clear,160,2012-12-02 01:54:00
8:54 PM,60.1,42.1,51,30.10,10.0,South,8.1,-,N/A,,Clear,170,2012-12-02 02:54:00
9:54 PM,60.1,44.1,55,30.11,10.0,South,9.2,-,N/A,,Clear,180,2012-12-02 03:54:00
10:54 PM,59.0,46.0,62,30.12,10.0,SSW,9.2,-,N/A,,Clear,200,2012-12-02 04:54:00
11:54 PM,61.0,46.9,60,30.12,10.0,South,10.4,-,N/A,,Overcast,190,2012-12-02 05:54:00